RYR2PM ESSA-EPKK

Flight info

Callsign RYR2PM
Flight time 1h 41m
Altitude 35000
Route BABAP T316 NEPVA DCT OLANU/N0458F360 DCT PENOR/N0459F350 DCT RATOR/N0460F370 DCT ATKUN DCT OKENO DCT UWLER
Aircraft B38M/M-SDE1FGHILORVWXY/HB1

Departure

Time 2026-05-07 15:56
Airport Stockholm-Arlanda Airport (ESSA)

Arrival

Time 2026-05-07 17:37
Airport Kraków John Paul II International Airport (EPKK)
Time Latitude Longitude Altitude Speed Heading
2026-05-07 15:29 59.65506 17.94014 118 ft 0 kts 76°
2026-05-07 15:44 59.65504 17.93995 114 ft 3 kts 76°
2026-05-07 15:44 59.65500 17.93964 113 ft 3 kts 71°
2026-05-07 15:44 59.65491 17.93931 112 ft 3 kts 41°
2026-05-07 15:44 59.65476 17.93917 111 ft 3 kts 358°
2026-05-07 15:45 59.65466 17.93919 114 ft 0 kts 346°
2026-05-07 15:49 59.65468 17.93918 113 ft 1 kts 346°
2026-05-07 15:49 59.65484 17.93910 113 ft 4 kts 346°
2026-05-07 15:49 59.65515 17.93894 115 ft 5 kts 346°
2026-05-07 15:49 59.65557 17.93872 115 ft 7 kts 345°
2026-05-07 15:50 59.65589 17.93798 113 ft 8 kts 280°
2026-05-07 15:50 59.65580 17.93680 115 ft 10 kts 257°
2026-05-07 15:50 59.65561 17.93526 115 ft 13 kts 256°
2026-05-07 15:50 59.65536 17.93343 113 ft 14 kts 256°
2026-05-07 15:51 59.65511 17.93141 113 ft 16 kts 256°
2026-05-07 15:51 59.65479 17.92923 111 ft 17 kts 250°
2026-05-07 15:51 59.65432 17.92710 111 ft 15 kts 251°
2026-05-07 15:51 59.65495 17.92557 108 ft 17 kts 337°
2026-05-07 15:52 59.65619 17.92485 106 ft 20 kts 345°
2026-05-07 15:52 59.65751 17.92419 106 ft 15 kts 355°
2026-05-07 15:52 59.65851 17.92453 109 ft 15 kts 10°
2026-05-07 15:52 59.65950 17.92489 111 ft 15 kts 10°
2026-05-07 15:53 59.66049 17.92525 113 ft 15 kts 10°
2026-05-07 15:53 59.66150 17.92561 112 ft 15 kts 10°
2026-05-07 15:53 59.66249 17.92597 118 ft 14 kts 10°
2026-05-07 15:53 59.66340 17.92629 118 ft 13 kts 10°
2026-05-07 15:54 59.66424 17.92657 124 ft 12 kts
2026-05-07 15:54 59.66503 17.92626 122 ft 12 kts 340°
2026-05-07 15:54 59.66579 17.92573 124 ft 12 kts 340°
2026-05-07 15:54 59.66620 17.92454 127 ft 12 kts 268°
2026-05-07 15:55 59.66578 17.92355 126 ft 0 kts 192°
2026-05-07 15:55 59.66571 17.92352 125 ft 0 kts 192°
2026-05-07 15:55 59.66568 17.92351 125 ft 2 kts 192°
2026-05-07 15:55 59.66504 17.92327 122 ft 28 kts 190°
2026-05-07 15:56 59.66038 17.92157 120 ft 106 kts 190°
2026-05-07 15:56 59.65091 17.91810 113 ft 166 kts 191°
2026-05-07 15:56 59.63905 17.91434 766 ft 172 kts 190°
2026-05-07 15:56 59.62709 17.91063 1670 ft 176 kts 187°
2026-05-07 15:57 59.61468 17.90835 2381 ft 190 kts 182°
2026-05-07 15:57 59.60057 17.90738 2866 ft 216 kts 181°
2026-05-07 15:57 59.58557 17.90524 3882 ft 213 kts 186°
2026-05-07 15:57 59.57032 17.90647 4658 ft 231 kts 166°
2026-05-07 15:58 59.55628 17.92392 4839 ft 247 kts 128°
2026-05-07 15:58 59.55031 17.95524 5009 ft 255 kts 90°
2026-05-07 15:58 59.55139 17.98966 5980 ft 251 kts 88°
2026-05-07 15:58 59.54833 18.02418 6849 ft 259 kts 109°
2026-05-07 15:59 59.54172 18.05756 7726 ft 266 kts 110°
2026-05-07 15:59 59.53519 18.09217 8537 ft 275 kts 109°
2026-05-07 15:59 59.52851 18.12826 9122 ft 292 kts 109°
2026-05-07 15:59 59.52146 18.16677 9893 ft 300 kts 109°
2026-05-07 16:00 59.51333 18.20520 10601 ft 311 kts 122°
2026-05-07 16:00 59.49788 18.23573 11056 ft 324 kts 152°
2026-05-07 16:00 59.47742 18.25726 11468 ft 343 kts 153°
2026-05-07 16:00 59.45627 18.28147 11779 ft 363 kts 152°
2026-05-07 16:01 59.43442 18.30715 12240 ft 377 kts 151°
2026-05-07 16:01 59.41184 18.33397 13023 ft 380 kts 151°
2026-05-07 16:01 59.38904 18.36115 13762 ft 385 kts 151°
2026-05-07 16:01 59.36609 18.38851 14440 ft 389 kts 152°
2026-05-07 16:02 59.34283 18.41623 15091 ft 392 kts 152°
2026-05-07 16:02 59.31921 18.44434 15738 ft 396 kts 152°
2026-05-07 16:02 59.29584 18.47212 16369 ft 400 kts 153°
2026-05-07 16:02 59.27185 18.50058 16996 ft 404 kts 153°
2026-05-07 16:03 59.24778 18.52908 17612 ft 407 kts 153°
2026-05-07 16:03 59.22336 18.55796 18244 ft 411 kts 153°
2026-05-07 16:03 59.19912 18.58657 18769 ft 415 kts 153°
2026-05-07 16:03 59.17427 18.61585 19282 ft 418 kts 154°
2026-05-07 16:04 59.14925 18.64528 19792 ft 421 kts 154°
2026-05-07 16:04 59.12401 18.67491 20301 ft 425 kts 154°
2026-05-07 16:04 59.09849 18.70483 20767 ft 428 kts 153°
2026-05-07 16:04 59.07295 18.73470 21288 ft 431 kts 154°
2026-05-07 16:05 59.04714 18.76484 21759 ft 434 kts 154°
2026-05-07 16:05 59.02095 18.79267 22202 ft 432 kts 163°
2026-05-07 16:05 58.99210 18.80576 22622 ft 422 kts 184°
2026-05-07 16:05 58.96324 18.79955 23012 ft 414 kts 200°
2026-05-07 16:06 58.93593 18.78339 23407 ft 416 kts 202°
2026-05-07 16:06 58.90803 18.76773 23850 ft 419 kts 201°
2026-05-07 16:06 58.87986 18.75227 24231 ft 422 kts 201°
2026-05-07 16:06 58.85143 18.73692 24614 ft 425 kts 201°
2026-05-07 16:07 58.82263 18.72144 24989 ft 428 kts 201°
2026-05-07 16:07 58.79389 18.70605 25333 ft 430 kts 201°
2026-05-07 16:07 58.76535 18.69080 25676 ft 433 kts 201°
2026-05-07 16:07 58.73620 18.67526 26037 ft 435 kts 201°
2026-05-07 16:08 58.70683 18.65962 26396 ft 438 kts 201°
2026-05-07 16:08 58.67731 18.64394 26739 ft 441 kts 201°
2026-05-07 16:08 58.64772 18.62823 27083 ft 443 kts 200°
2026-05-07 16:08 58.61782 18.61239 27434 ft 445 kts 200°
2026-05-07 16:09 58.58776 18.59649 27760 ft 448 kts 200°
2026-05-07 16:09 58.55798 18.58078 28075 ft 450 kts 200°
2026-05-07 16:09 58.52768 18.56481 28357 ft 453 kts 200°
2026-05-07 16:09 58.49718 18.54877 28644 ft 456 kts 200°
2026-05-07 16:10 58.46644 18.53263 28954 ft 458 kts 200°
2026-05-07 16:10 58.43554 18.51643 29280 ft 460 kts 200°
2026-05-07 16:10 58.40466 18.50023 29715 ft 459 kts 200°
2026-05-07 16:10 58.37425 18.48429 30134 ft 459 kts 200°
2026-05-07 16:11 58.34345 18.46817 30501 ft 458 kts 200°
2026-05-07 16:11 58.31267 18.45210 30860 ft 457 kts 200°
2026-05-07 16:11 58.28207 18.43616 31227 ft 456 kts 200°
2026-05-07 16:11 58.25137 18.42020 31549 ft 456 kts 199°
2026-05-07 16:12 58.22068 18.40428 31892 ft 455 kts 199°
2026-05-07 16:12 58.19051 18.38866 32237 ft 455 kts 199°
2026-05-07 16:12 58.15997 18.37286 32571 ft 454 kts 199°
2026-05-07 16:12 58.12949 18.35712 32911 ft 454 kts 199°
2026-05-07 16:13 58.09901 18.34142 33258 ft 453 kts 199°
2026-05-07 16:13 58.06866 18.32581 33583 ft 452 kts 199°
2026-05-07 16:13 58.03822 18.31019 33897 ft 452 kts 199°
2026-05-07 16:13 58.00821 18.29483 34193 ft 451 kts 199°
2026-05-07 16:14 57.97790 18.27934 34437 ft 451 kts 199°
2026-05-07 16:14 57.94735 18.26377 34673 ft 451 kts 199°
2026-05-07 16:14 57.91713 18.24838 34943 ft 450 kts 199°
2026-05-07 16:14 57.88721 18.23316 35218 ft 449 kts 199°
2026-05-07 16:15 57.85710 18.21788 35500 ft 448 kts 199°
2026-05-07 16:15 57.82708 18.20267 35766 ft 447 kts 199°
2026-05-07 16:15 57.79711 18.18753 36006 ft 447 kts 199°
2026-05-07 16:15 57.76712 18.17239 36247 ft 445 kts 199°
2026-05-07 16:16 57.73722 18.15730 36489 ft 444 kts 199°
2026-05-07 16:16 57.70728 18.14226 36708 ft 443 kts 198°
2026-05-07 16:16 57.67742 18.12726 36957 ft 442 kts 198°
2026-05-07 16:16 57.64766 18.11235 37133 ft 442 kts 198°
2026-05-07 16:17 57.61818 18.09762 37106 ft 442 kts 198°
2026-05-07 16:17 57.55938 18.06829 37118 ft 440 kts 198°
2026-05-07 16:18 57.50017 18.03887 37104 ft 440 kts 198°
2026-05-07 16:18 57.44090 18.00952 37105 ft 440 kts 198°
2026-05-07 16:19 57.38198 17.98043 37103 ft 440 kts 198°
2026-05-07 16:19 57.32278 17.95131 37102 ft 440 kts 198°
2026-05-07 16:20 57.26391 17.92244 37102 ft 440 kts 198°
2026-05-07 16:20 57.20459 17.89346 37103 ft 440 kts 198°
2026-05-07 16:21 57.14570 17.86477 37105 ft 440 kts 198°
2026-05-07 16:21 57.08648 17.83602 37105 ft 439 kts 198°
2026-05-07 16:22 57.02722 17.80735 37101 ft 440 kts 198°
2026-05-07 16:22 56.96837 17.77897 37104 ft 440 kts 198°
2026-05-07 16:23 56.91873 17.75511 37092 ft 440 kts 197°
2026-05-07 16:23 56.85972 17.72681 37107 ft 439 kts 197°
2026-05-07 16:24 56.80078 17.69864 37107 ft 439 kts 197°
2026-05-07 16:24 56.74162 17.67047 37108 ft 439 kts 197°
2026-05-07 16:25 56.68234 17.64233 37108 ft 439 kts 197°
2026-05-07 16:25 56.62322 17.61436 37107 ft 439 kts 197°
2026-05-07 16:26 56.56463 17.58673 37107 ft 438 kts 197°
2026-05-07 16:26 56.50543 17.55889 37109 ft 438 kts 197°
2026-05-07 16:27 56.44631 17.53119 37109 ft 438 kts 197°
2026-05-07 16:27 56.38723 17.50360 37096 ft 437 kts 197°
2026-05-07 16:28 56.32881 17.47639 37097 ft 435 kts 197°
2026-05-07 16:28 56.27039 17.44927 37106 ft 433 kts 197°
2026-05-07 16:29 56.21195 17.42223 37102 ft 434 kts 197°
2026-05-07 16:29 56.15336 17.39521 37112 ft 434 kts 197°
2026-05-07 16:30 56.09536 17.36854 37112 ft 433 kts 197°
2026-05-07 16:30 56.03607 17.34791 37087 ft 437 kts 183°
2026-05-07 16:30 56.00567 17.35326 37112 ft 442 kts 172°
2026-05-07 16:31 55.97541 17.36344 37095 ft 443 kts 174°
2026-05-07 16:31 55.91484 17.38046 37109 ft 443 kts 175°
2026-05-07 16:32 55.85353 17.39703 37101 ft 443 kts 175°
2026-05-07 16:32 55.79303 17.41323 37102 ft 442 kts 175°
2026-05-07 16:33 55.73201 17.42953 37104 ft 442 kts 175°
2026-05-07 16:33 55.67103 17.44576 37102 ft 442 kts 175°
2026-05-07 16:34 55.61056 17.46180 37098 ft 442 kts 175°
2026-05-07 16:34 55.54969 17.47790 37096 ft 441 kts 175°
2026-05-07 16:35 55.48934 17.49382 37084 ft 440 kts 175°
2026-05-07 16:35 55.42878 17.50973 37099 ft 439 kts 175°
2026-05-07 16:36 55.36843 17.52555 37100 ft 438 kts 175°
2026-05-07 16:36 55.30829 17.54126 37085 ft 438 kts 175°
2026-05-07 16:37 55.24799 17.55697 37093 ft 437 kts 175°
2026-05-07 16:37 55.18763 17.57264 37093 ft 437 kts 175°
2026-05-07 16:38 55.12775 17.58814 37098 ft 437 kts 175°
2026-05-07 16:38 55.06750 17.60369 37092 ft 437 kts 175°
2026-05-07 16:39 55.00753 17.61914 37089 ft 438 kts 175°
2026-05-07 16:39 54.94703 17.63464 37095 ft 439 kts 175°
2026-05-07 16:40 54.88657 17.65010 37096 ft 439 kts 175°
2026-05-07 16:40 54.82647 17.66542 37091 ft 436 kts 175°
2026-05-07 16:41 54.76620 17.68074 37088 ft 435 kts 175°
2026-05-07 16:41 54.70654 17.69586 37093 ft 435 kts 175°
2026-05-07 16:42 54.64661 17.71101 37090 ft 435 kts 175°
2026-05-07 16:42 54.58667 17.72611 37089 ft 435 kts 175°
2026-05-07 16:43 54.52700 17.74109 37074 ft 435 kts 175°
2026-05-07 16:43 54.46699 17.75612 37076 ft 435 kts 175°
2026-05-07 16:44 54.40714 17.77107 37078 ft 433 kts 174°
2026-05-07 16:44 54.34756 17.78590 37074 ft 433 kts 175°
2026-05-07 16:45 54.28831 17.80061 37081 ft 433 kts 175°
2026-05-07 16:45 54.22871 17.81536 37075 ft 431 kts 175°
2026-05-07 16:46 54.16924 17.83005 37068 ft 431 kts 174°
2026-05-07 16:46 54.11019 17.84457 37064 ft 432 kts 174°
2026-05-07 16:47 54.05067 17.85917 37063 ft 432 kts 174°
2026-05-07 16:47 53.99109 17.87375 37057 ft 432 kts 174°
2026-05-07 16:48 53.93145 17.88423 37070 ft 430 kts 178°
2026-05-07 16:48 53.87182 17.89306 37053 ft 431 kts 177°
2026-05-07 16:49 53.81230 17.90209 37052 ft 431 kts 177°
2026-05-07 16:49 53.75241 17.91118 37056 ft 431 kts 177°
2026-05-07 16:50 53.69252 17.92024 37047 ft 431 kts 177°
2026-05-07 16:50 53.63273 17.92926 37020 ft 431 kts 177°
2026-05-07 16:51 53.57330 17.93820 37037 ft 430 kts 178°
2026-05-07 16:51 53.51373 17.94713 37044 ft 430 kts 178°
2026-05-07 16:52 53.45415 17.95605 37042 ft 430 kts 178°
2026-05-07 16:52 53.39459 17.96493 37036 ft 430 kts 178°
2026-05-07 16:53 53.33484 17.97382 37029 ft 430 kts 178°
2026-05-07 16:53 53.27558 17.98261 37023 ft 430 kts 178°
2026-05-07 16:54 53.21577 17.99146 37025 ft 430 kts 178°
2026-05-07 16:54 53.15612 18.00025 37023 ft 430 kts 178°
2026-05-07 16:55 53.09669 18.00900 37016 ft 430 kts 178°
2026-05-07 16:55 53.03698 18.01776 37018 ft 430 kts 178°
2026-05-07 16:56 52.97766 18.02643 37002 ft 430 kts 178°
2026-05-07 16:56 52.88890 18.03937 37024 ft 425 kts 178°
2026-05-07 16:57 52.83012 18.04792 37020 ft 425 kts 178°
2026-05-07 16:57 52.77106 18.05647 37026 ft 426 kts 178°
2026-05-07 16:58 52.71193 18.06502 37023 ft 426 kts 178°
2026-05-07 16:58 52.65363 18.08182 37044 ft 429 kts 166°
2026-05-07 16:59 52.59654 18.10919 37007 ft 430 kts 167°
2026-05-07 16:59 52.53897 18.13691 37018 ft 431 kts 167°
2026-05-07 17:00 52.48135 18.16465 37023 ft 431 kts 167°
2026-05-07 17:00 52.42408 18.19216 37004 ft 430 kts 167°
2026-05-07 17:01 52.36667 18.21966 37017 ft 428 kts 167°
2026-05-07 17:01 52.30931 18.24707 37015 ft 429 kts 167°
2026-05-07 17:02 52.25222 18.27426 37013 ft 429 kts 167°
2026-05-07 17:02 52.19484 18.30153 37012 ft 429 kts 167°
2026-05-07 17:03 52.13790 18.32851 37012 ft 429 kts 167°
2026-05-07 17:03 52.08051 18.35563 37012 ft 429 kts 167°
2026-05-07 17:04 52.02330 18.38260 37009 ft 429 kts 167°
2026-05-07 17:04 51.96594 18.40956 36993 ft 428 kts 168°
2026-05-07 17:05 51.90857 18.43646 37006 ft 429 kts 168°
2026-05-07 17:05 51.85160 18.46311 36996 ft 429 kts 168°
2026-05-07 17:06 51.79420 18.48988 36996 ft 429 kts 168°
2026-05-07 17:06 51.73677 18.51659 36997 ft 428 kts 168°
2026-05-07 17:07 51.68004 18.54292 36993 ft 428 kts 168°
2026-05-07 17:07 51.62272 18.56944 36993 ft 428 kts 168°
2026-05-07 17:08 51.56506 18.59233 36965 ft 421 kts 181°
2026-05-07 17:08 51.50691 18.59334 36934 ft 420 kts 182°
2026-05-07 17:09 51.44837 18.59398 36988 ft 420 kts 183°
2026-05-07 17:09 51.39033 18.59414 36987 ft 419 kts 183°
2026-05-07 17:10 51.33188 18.59423 36976 ft 419 kts 183°
2026-05-07 17:10 51.28324 18.59430 36979 ft 419 kts 183°
2026-05-07 17:11 51.21532 18.59440 36974 ft 418 kts 183°
2026-05-07 17:11 51.16693 18.59447 36967 ft 418 kts 183°
2026-05-07 17:12 51.10868 18.59455 36152 ft 418 kts 183°
2026-05-07 17:12 51.07953 18.59459 35506 ft 416 kts 183°
2026-05-07 17:12 51.05080 18.59463 35051 ft 410 kts 183°
2026-05-07 17:13 51.02217 18.59467 34337 ft 410 kts 183°
2026-05-07 17:13 50.99417 18.59476 33954 ft 402 kts 182°
2026-05-07 17:13 50.96641 18.60034 33424 ft 401 kts 173°
2026-05-07 17:13 50.93918 18.60856 32640 ft 400 kts 174°
2026-05-07 17:14 50.91173 18.61661 31866 ft 401 kts 173°
2026-05-07 17:14 50.88422 18.62473 31093 ft 402 kts 173°
2026-05-07 17:14 50.85670 18.63286 30314 ft 403 kts 173°
2026-05-07 17:14 50.82934 18.64095 29462 ft 404 kts 173°
2026-05-07 17:15 50.80155 18.64914 28498 ft 406 kts 173°
2026-05-07 17:15 50.77357 18.65739 27459 ft 410 kts 172°
2026-05-07 17:15 50.74567 18.66560 26440 ft 415 kts 172°
2026-05-07 17:15 50.71718 18.67398 25652 ft 414 kts 172°
2026-05-07 17:16 50.68912 18.68222 25069 ft 409 kts 172°
2026-05-07 17:16 50.66116 18.69042 24430 ft 406 kts 172°
2026-05-07 17:16 50.63387 18.70193 23994 ft 403 kts 162°
2026-05-07 17:16 50.60983 18.72337 23649 ft 403 kts 147°
2026-05-07 17:17 50.58966 18.75475 23218 ft 417 kts 134°
2026-05-07 17:17 50.57373 18.79391 22828 ft 433 kts 122°
2026-05-07 17:17 50.56346 18.83927 22565 ft 448 kts 108°
2026-05-07 17:17 50.56084 18.88860 22289 ft 459 kts 92°
2026-05-07 17:18 50.56210 18.93877 21990 ft 457 kts 94°
2026-05-07 17:18 50.56254 18.98814 21714 ft 455 kts 94°
2026-05-07 17:18 50.56277 19.03768 21463 ft 453 kts 95°
2026-05-07 17:18 50.56286 19.08729 21200 ft 452 kts 95°
2026-05-07 17:19 50.56289 19.13659 20954 ft 450 kts 95°
2026-05-07 17:19 50.56194 19.18561 20519 ft 443 kts 102°
2026-05-07 17:19 50.55384 19.23164 19698 ft 433 kts 120°
2026-05-07 17:19 50.53775 19.27030 19008 ft 411 kts 136°
2026-05-07 17:20 50.51916 19.30318 18472 ft 396 kts 135°
2026-05-07 17:20 50.50203 19.33536 18052 ft 380 kts 134°
2026-05-07 17:20 50.48541 19.36693 17526 ft 368 kts 134°
2026-05-07 17:20 50.46942 19.39751 17013 ft 357 kts 134°
2026-05-07 17:21 50.45388 19.42737 16494 ft 348 kts 133°
2026-05-07 17:21 50.43892 19.45621 15990 ft 340 kts 133°
2026-05-07 17:21 50.42395 19.48511 15499 ft 332 kts 133°
2026-05-07 17:21 50.40974 19.51254 15059 ft 324 kts 133°
2026-05-07 17:22 50.39560 19.53979 14724 ft 313 kts 133°
2026-05-07 17:22 50.38212 19.56578 14345 ft 306 kts 133°
2026-05-07 17:22 50.36882 19.59138 13982 ft 298 kts 133°
2026-05-07 17:22 50.35590 19.61626 13658 ft 289 kts 133°
2026-05-07 17:23 50.34338 19.64035 13298 ft 281 kts 133°
2026-05-07 17:23 50.33129 19.66362 12965 ft 273 kts 133°
2026-05-07 17:23 50.31947 19.68633 12688 ft 267 kts 133°
2026-05-07 17:23 50.30771 19.70892 12442 ft 266 kts 133°
2026-05-07 17:24 50.29601 19.73143 12170 ft 266 kts 133°
2026-05-07 17:24 50.28432 19.75388 11917 ft 265 kts 133°
2026-05-07 17:24 50.27276 19.77604 11657 ft 265 kts 133°
2026-05-07 17:24 50.26113 19.79834 11398 ft 265 kts 133°
2026-05-07 17:25 50.24942 19.82077 11090 ft 266 kts 133°
2026-05-07 17:25 50.23764 19.84332 10717 ft 268 kts 133°
2026-05-07 17:25 50.22591 19.86576 10360 ft 270 kts 133°
2026-05-07 17:25 50.21398 19.88856 10002 ft 272 kts 133°
2026-05-07 17:26 50.20195 19.91163 9629 ft 274 kts 130°
2026-05-07 17:26 50.19364 19.93857 9198 ft 282 kts 103°
2026-05-07 17:26 50.19381 19.96883 8807 ft 286 kts 79°
2026-05-07 17:26 50.19808 19.99984 8383 ft 290 kts 79°
2026-05-07 17:27 50.20215 20.03044 7933 ft 294 kts 79°
2026-05-07 17:27 50.20637 20.06197 7485 ft 299 kts 79°
2026-05-07 17:27 50.21063 20.09366 7099 ft 294 kts 78°
2026-05-07 17:27 50.21474 20.12425 6743 ft 287 kts 79°
2026-05-07 17:28 50.21878 20.15424 6418 ft 277 kts 78°
2026-05-07 17:28 50.22269 20.18339 6062 ft 270 kts 78°
2026-05-07 17:28 50.22653 20.21185 5704 ft 264 kts 78°
2026-05-07 17:28 50.23025 20.23944 5438 ft 254 kts 78°
2026-05-07 17:29 50.23379 20.26594 5190 ft 244 kts 79°
2026-05-07 17:29 50.23371 20.29140 4998 ft 230 kts 109°
2026-05-07 17:29 50.22579 20.31160 4867 ft 217 kts 140°
2026-05-07 17:29 50.21301 20.32349 4923 ft 215 kts 167°
2026-05-07 17:30 50.19830 20.32510 5001 ft 212 kts 193°
2026-05-07 17:30 50.18491 20.31639 5041 ft 208 kts 219°
2026-05-07 17:30 50.17531 20.29984 5043 ft 206 kts 238°
2026-05-07 17:30 50.16712 20.28166 5051 ft 207 kts 235°
2026-05-07 17:31 50.15864 20.26352 5041 ft 207 kts 235°
2026-05-07 17:31 50.15008 20.24534 5030 ft 207 kts 235°
2026-05-07 17:31 50.14226 20.22648 5011 ft 206 kts 245°
2026-05-07 17:31 50.13690 20.20570 4934 ft 207 kts 252°
2026-05-07 17:32 50.13276 20.18425 4793 ft 205 kts 255°
2026-05-07 17:32 50.12929 20.16293 4563 ft 205 kts 257°
2026-05-07 17:32 50.12614 20.14132 4364 ft 204 kts 258°
2026-05-07 17:32 50.12316 20.11969 4246 ft 203 kts 258°
2026-05-07 17:33 50.12027 20.09835 4121 ft 203 kts 259°
2026-05-07 17:33 50.11741 20.07700 3958 ft 193 kts 259°
2026-05-07 17:33 50.11475 20.05716 3791 ft 183 kts 259°
2026-05-07 17:33 50.11220 20.03810 3581 ft 181 kts 259°
2026-05-07 17:34 50.10963 20.01894 3327 ft 179 kts 259°
2026-05-07 17:34 50.10708 19.99993 3137 ft 178 kts 258°
2026-05-07 17:34 50.10453 19.98096 3010 ft 179 kts 259°
2026-05-07 17:34 50.10200 19.96228 2820 ft 175 kts 258°
2026-05-07 17:35 50.09956 19.94416 2615 ft 165 kts 259°
2026-05-07 17:35 50.09732 19.92755 2432 ft 150 kts 258°
2026-05-07 17:35 50.09519 19.91181 2249 ft 150 kts 259°
2026-05-07 17:35 50.09304 19.89597 2048 ft 151 kts 258°
2026-05-07 17:36 50.09084 19.87986 1831 ft 153 kts 258°
2026-05-07 17:36 50.08860 19.86350 1634 ft 155 kts 257°
2026-05-07 17:36 50.08638 19.84728 1427 ft 154 kts 256°
2026-05-07 17:36 50.08416 19.83097 1216 ft 154 kts 256°
2026-05-07 17:37 50.08192 19.81471 1029 ft 151 kts 255°
2026-05-07 17:37 50.07967 19.79881 837 ft 150 kts 256°
2026-05-07 17:37 50.07765 19.78452 804 ft 103 kts 258°
2026-05-07 17:37 50.07663 19.77714 801 ft 38 kts 261°
2026-05-07 17:38 50.07609 19.77322 803 ft 37 kts 257°
2026-05-07 17:38 50.07565 19.76996 805 ft 26 kts 258°
2026-05-07 17:38 50.07495 19.76845 804 ft 15 kts 185°
2026-05-07 17:38 50.07386 19.76881 802 ft 17 kts 167°
2026-05-07 17:39 50.07312 19.76935 802 ft 8 kts 115°
2026-05-07 17:39 50.07312 19.77000 802 ft 6 kts 80°
2026-05-07 17:39 50.07322 19.77079 802 ft 8 kts 79°
2026-05-07 17:39 50.07334 19.77179 802 ft 10 kts 79°
2026-05-07 17:40 50.07352 19.77298 802 ft 12 kts 73°
2026-05-07 17:40 50.07374 19.77444 802 ft 18 kts 77°
2026-05-07 17:40 50.07408 19.77691 802 ft 29 kts 78°
2026-05-07 17:40 50.07453 19.78011 802 ft 32 kts 77°
2026-05-07 17:41 50.07500 19.78349 802 ft 33 kts 78°
2026-05-07 17:41 50.07548 19.78699 802 ft 33 kts 77°
2026-05-07 17:41 50.07598 19.79056 802 ft 34 kts 77°
2026-05-07 17:41 50.07649 19.79421 802 ft 35 kts 78°
2026-05-07 17:42 50.07693 19.79727 802 ft 25 kts 77°
2026-05-07 17:42 50.07683 19.79873 802 ft 10 kts 158°
2026-05-07 17:42 50.07614 19.79901 802 ft 11 kts 168°
2026-05-07 17:42 50.07527 19.79928 802 ft 16 kts 168°
2026-05-07 17:43 50.07411 19.79954 802 ft 15 kts 200°
2026-05-07 17:43 50.07378 19.79870 802 ft 9 kts 252°
2026-05-07 17:43 50.07357 19.79843 802 ft 3 kts 193°
2026-05-07 17:43 50.07320 19.79852 802 ft 7 kts 167°
2026-05-07 17:44 50.07298 19.79859 802 ft 1 kts 168°
2026-05-07 17:44 50.07290 19.79862 802 ft 1 kts 168°
2026-05-07 17:44 50.07289 19.79862 802 ft 0 kts 168°